Regional Weather Roundup
Issued by NWS

Home | Current Version | Previous Version | Graphics & Text | Print | Product List | Glossary On
Versions: 1 2 3 4 5 6 7 8 9 10 11 12 13 14 15 16 17 18 19 20 21 22 23 24 25 26 27 28 29 30 31 32 33 34 35 36 37 38 39 40 41 42 43 44 45 46 47 48 49 50
000
ASUS45 KBOI 220810
RWRID

IDAHO REGIONAL WEATHER ROUNDUP
NATIONAL WEATHER SERVICE BOISE ID
200 AM MDT SUN OCT 22 2017

NOTE: "FAIR" INDICATES FEW OR NO CLOUDS BELOW 12000 FEET
WITH NO SIGNIFICANT WEATHER AND/OR OBSTRUCTIONS TO VISIBILITY

IDZ012-014-220900-
SOUTHWEST IDAHO


CITY           SKY/WX    TMP DP  RH WIND       PRES   REMARKS
BOISE          CLOUDY    47  39  74 SE15      30.19R
CALDWELL       CLOUDY    48  42  80 E12       30.18R
MOUNTAIN HOME  CLOUDY    44  44 100 E14       30.21F
$$

IDZ016-017-220900-
SOUTHCENTRAL IDAHO


CITY           SKY/WX    TMP DP  RH WIND       PRES   REMARKS
BURLEY         MOCLDY    46  38  73 S13       30.23S
JEROME         PTCLDY    40  40 100 NE10      30.25R WCI  33
TWIN FALLS     PTCLDY    43  40  89 S10       30.24S
$$

IDZ019>023-220900-
SOUTHEAST IDAHO


CITY           SKY/WX    TMP DP  RH WIND       PRES   REMARKS
IDAHO FALLS    CLOUDY    39  36  89 S16       30.25S WCI  30
POCATELLO      CLOUDY    46  35  65 S10       30.27F
REXBURG        CLOUDY    36  34  92 S14G24    30.23F WCI  27
$$

IDZ006-010-011-018-031-032-220900-
CENTRAL IDAHO MOUNTAINS


CITY           SKY/WX    TMP DP  RH WIND       PRES   REMARKS
MCCALL         CLOUDY    35  33  92 N6        30.13R WCI  30
HAILEY         PTCLDY    34  32  93 NW7       30.27S WCI  28
STANLEY          N/A     35  34  96 CALM      30.19S
SALMON         CLOUDY    45  33  63 S16       30.08F
CHALLIS        CLOUDY    39  31  72 N3        30.12F
$$

IDZ002-004-006-007-026-220900-
NORTHERN IDAHO


CITY           SKY/WX    TMP DP  RH WIND       PRES   REMARKS
LEWISTON       CLOUDY    54  42  64 S21G36    29.87R
LOWELL           N/A     43  42  97 VRB6      30.00F
COEUR D`ALENE  LGT RAIN  47  45  93 S16       29.72F
MULLAN PASS    SNOW      32  30  92 S13G25    29.78F VSB 1/4 WCI  22
$$



USA.gov is the U.S. government's official web portal to all federal, state and local government web resources and services.